WX1NWA Weather Reports


time (UTC)temp
C
wind
direction
speed
KPH
gust
KPH
rain 1hr
cm
rain 24hr
cm
rain mn
cm
humidity
%
barometer
mb
20260510045511 18 161 8.0 11.3 0.00 0.00 0.00 70 1017.0
20260510045007 18 225 4.8 8.0 0.00 0.00 0.00 70 1017.1
20260510044504 18 144 8.0 11.3 0.00 0.00 0.00 69 1017.2
20260510044001 18 119 6.4 9.7 0.00 0.00 0.00 69 1017.2
20260510043456 18 204 4.8 8.0 0.00 0.00 0.00 69 1017.0
20260510042955 18 116 1.6 3.2 0.00 0.00 0.00 69 1016.9
20260510042451 18 14 3.2 3.2 0.00 0.00 0.00 68 1017.1
20260510041946 18 243 3.2 3.2 0.00 0.00 0.00 68 1016.9
20260510041444 19 224 4.8 4.8 0.00 0.00 0.00 67 1016.9
20260510040942 19 215 1.6 3.2 0.00 0.00 0.00 66 1017.0
20260510040438 19 190 4.8 4.8 0.00 0.00 0.00 65 1017.1
20260510035935 19 195 3.2 4.8 0.00 0.00 0.00 65 1017.1
20260510035431 19 138 6.4 9.7 0.00 0.00 0.00 64 1016.8
20260510034930 20 224 4.8 8.0 0.00 0.00 0.00 63 1016.6
20260510034429 20 119 1.6 3.2 0.00 0.00 0.00 62 1016.4
20260510033925 20 267 3.2 4.8 0.00 0.00 0.00 62 1016.3
20260510033421 20 260 3.2 4.8 0.00 0.00 0.00 61 1016.6
20260510032918 20 136 6.4 8.0 0.00 0.00 0.00 61 1016.2
20260510032415 20 179 4.8 9.7 0.00 0.00 0.00 60 1016.6
20260510031910 20 119 4.8 8.0 0.00 0.00 0.00 60 1016.5
20260510031407 20 190 0.0 1.6 0.00 0.00 0.00 60 1016.5
20260510030906 20 170 6.4 9.7 0.00 0.00 0.00 60 1016.2
20260510030403 20 234 1.6 3.2 0.00 0.00 0.00 60 1016.2
20260510025901 20 237 1.6 1.6 0.00 0.00 0.00 60 1016.3
20260510025358 20 181 3.2 4.8 0.00 0.00 0.00 60 1016.2
20260510024855 20 175 4.8 8.0 0.00 0.00 0.00 60 1016.2
20260510024352 20 219 1.6 1.6 0.00 0.00 0.00 60 1016.0
20260510023847 20 175 3.2 3.2 0.00 0.00 0.00 60 1016.2
20260510023344 20 238 3.2 3.2 0.00 0.00 0.00 59 1016.1
20260510022842 20 240 4.8 8.0 0.00 0.00 0.00 58 1015.7
20260510022341 20 177 4.8 4.8 0.00 0.00 0.00 57 1015.5
20260510021840 20 248 1.6 3.2 0.00 0.00 0.00 55 1015.7
20260510021338 20 267 0.0 0.0 0.00 0.00 0.00 48 1015.4
20260510020835 20 251 1.6 1.6 0.00 0.00 0.00 47 1015.4
20260510020334 20 230 1.6 1.6 0.00 0.00 0.00 47 1015.4
20260510015830 20 236 0.0 1.6 0.00 0.00 0.00 46 1015.1
20260510015326 21 216 0.0 1.6 0.00 0.00 0.00 46 1015.3
20260510014822 21 209 0.0 0.0 0.00 0.00 0.00 46 1015.1
20260510014319 21 127 4.8 4.8 0.00 0.00 0.00 46 1015.1
20260510013815 21 232 3.2 3.2 0.00 0.00 0.00 46 1014.9
20260510013311 20 339 1.6 1.6 0.00 0.00 0.00 47 1014.8
20260510012806 20 234 1.6 1.6 0.00 0.00 0.00 47 1014.9
20260510012301 21 207 0.0 1.6 0.00 0.00 0.00 46 1014.7
20260510011800 21 242 1.6 1.6 0.00 0.00 0.00 46 1014.8
20260510011256 21 239 3.2 3.2 0.00 0.00 0.00 45 1014.7
20260510010753 21 74 4.8 4.8 0.00 0.00 0.00 44 1014.9
20260510010250 21 126 4.8 8.0 0.00 0.00 0.00 43 1014.8
20260510005747 22 149 8.0 9.7 0.00 0.00 0.00 41 1014.7
20260510005243 21 73 4.8 9.7 0.00 0.00 0.00 41 1014.8
20260510004741 21 108 1.6 3.2 0.00 0.00 0.00 40 1014.6
20260510004238 21 331 1.6 1.6 0.00 0.00 0.00 40 1014.7
20260510003736 22 275 0.0 1.6 0.00 0.00 0.00 38 1014.5
20260510003232 22 306 1.6 3.2 0.00 0.00 0.00 38 1014.3
20260510002730 22 40 4.8 4.8 0.00 0.00 0.00 38 1014.6
20260510002228 22 247 0.0 1.6 0.00 0.00 0.00 39 1014.5
20260510001725 22 90 3.2 3.2 0.00 0.00 0.00 39 1014.4
20260510001224 22 313 1.6 1.6 0.00 0.00 0.00 40 1014.4
20260510000719 22 27 3.2 3.2 0.00 0.00 0.00 39 1014.6
20260510000218 22 291 1.6 1.6 0.00 0.00 0.00 39 1014.6
20260509235714 22 269 1.6 1.6 0.00 0.00 0.00 38 1014.7
20260509235210 22 265 0.0 1.6 0.00 0.00 0.00 38 1014.3
20260509234706 22 232 1.6 1.6 0.00 0.00 0.00 38 1014.5
20260509234203 22 268 0.0 0.0 0.00 0.00 0.00 38 1014.3
20260509233701 22 277 0.0 0.0 0.00 0.00 0.00 38 1014.3
20260509233159 22 254 1.6 1.6 0.00 0.00 0.00 37 1014.6
20260509232654 22 194 0.0 3.2 0.00 0.00 0.00 39 1014.6
20260509232151 22 271 0.0 1.6 0.00 0.00 0.00 39 1014.0
20260509231648 22 258 0.0 0.0 0.00 0.00 0.00 39 1014.7
20260509231145 23 214 1.6 3.2 0.00 0.00 0.00 40 1014.6
20260509230642 23 170 3.2 3.2 0.00 0.00 0.00 39 1014.5
20260509230139 23 134 1.6 4.8 0.00 0.00 0.00 38 1014.4
20260509225635 23 249 0.0 0.0 0.00 0.00 0.00 38 1014.5
20260509225131 23 258 0.0 0.0 0.00 0.00 0.00 38 1014.5
20260509224626 23 193 1.6 1.6 0.00 0.00 0.00 38 1014.5
20260509224123 23 47 3.2 3.2 0.00 0.00 0.00 37 1014.3
20260509223620 23 302 1.6 3.2 0.00 0.00 0.00 39 1014.4
20260509223118 23 300 1.6 1.6 0.00 0.00 0.00 38 1014.3
20260509222614 23 239 1.6 1.6 0.00 0.00 0.00 39 1014.4
20260509222110 23 329 1.6 1.6 0.00 0.00 0.00 37 1014.4
20260509221606 23 222 1.6 1.6 0.00 0.00 0.00 40 1014.1
20260509221102 23 271 0.0 0.0 0.00 0.00 0.00 38 1014.0
20260509220558 23 249 0.0 0.0 0.00 0.00 0.00 38 1014.3
20260509220054 23 108 3.2 3.2 0.00 0.00 0.00 36 1014.4
20260509215549 23 89 1.6 1.6 0.00 0.00 0.00 37 1014.1
20260509215047 23 199 4.8 4.8 0.00 0.00 0.00 36 1014.3
20260509214544 23 215 3.2 3.2 0.00 0.00 0.00 36 1014.3
20260509214041 23 223 3.2 3.2 0.00 0.00 0.00 37 1014.3
20260509213537 23 252 3.2 3.2 0.00 0.00 0.00 35 1014.6
20260509213034 24 184 3.2 4.8 0.00 0.00 0.00 37 1014.4
20260509212531 24 233 3.2 3.2 0.00 0.00 0.00 37 1014.5
20260509212028 25 191 1.6 1.6 0.00 0.00 0.00 38 1014.4
20260509211524 24 272 1.6 1.6 0.00 0.00 0.00 36 1014.4
20260509211021 24 273 1.6 1.6 0.00 0.00 0.00 37 1014.5
20260509210518 23 283 0.0 0.0 0.00 0.00 0.00 36 1014.7
20260509210014 23 204 3.2 3.2 0.00 0.00 0.00 36 1014.6
20260509205508 24 271 0.0 0.0 0.00 0.00 0.00 38 1014.7
20260509205004 25 286 0.0 1.6 0.00 0.00 0.00 37 1014.7
20260509204500 23 231 3.2 3.2 0.00 0.00 0.00 39 1014.8
20260509203957 24 231 4.8 4.8 0.00 0.00 0.00 36 1014.7
20260509203452 24 244 3.2 3.2 0.00 0.00 0.00 37 1014.9
20260509202950 24 171 4.8 4.8 0.00 0.00 0.00 40 1015.1
20260509202446 25 216 8.0 9.7 0.00 0.00 0.00 38 1014.7
20260509201941 24 344 1.6 3.2 0.00 0.00 0.00 39 1015.0
20260509201437 24 278 0.0 0.0 0.00 0.00 0.00 36 1014.8
20260509200934 24 137 3.2 4.8 0.00 0.00 0.00 39 1014.9
20260509200434 25 279 0.0 0.0 0.00 0.00 0.00 35 1014.7
20260509195931 25 279 1.6 1.6 0.00 0.00 0.00 35 1015.0
20260509195427 23 269 0.0 1.6 0.00 0.00 0.00 34 1015.0
20260509194926 23 274 1.6 3.2 0.00 0.00 0.00 36 1015.2
20260509194422 24 345 6.4 8.0 0.00 0.00 0.00 36 1015.1
20260509193920 24 163 6.4 8.0 0.00 0.00 0.00 38 1015.3
20260509193419 23 98 6.4 9.7 0.00 0.00 0.00 38 1015.4
20260509192915 23 243 4.8 4.8 0.00 0.00 0.00 37 1015.3
20260509192411 25 208 6.4 8.0 0.00 0.00 0.00 36 1015.3
20260509191907 25 201 3.2 4.8 0.00 0.00 0.00 36 1015.4
20260509191402 26 255 1.6 1.6 0.00 0.00 0.00 37 1015.4
20260509190859 26 280 0.0 0.0 0.00 0.00 0.00 37 1015.3
20260509190356 27 280 1.6 1.6 0.00 0.00 0.00 35 1015.3
20260509185853 26 272 0.0 0.0 0.00 0.00 0.00 35 1015.6
20260509185350 25 281 1.6 1.6 0.00 0.00 0.00 34 1015.4
20260509184847 25 121 6.4 11.3 0.00 0.00 0.00 34 1015.4
20260509184344 26 276 1.6 1.6 0.00 0.00 0.00 34 1015.3
20260509183841 26 280 1.6 1.6 0.00 0.00 0.00 32 1015.4
20260509183336 24 351 0.0 0.0 0.00 0.00 0.00 38 1015.5
20260509182832 23 283 0.0 0.0 0.00 0.00 0.00 39 1015.6
20260509182329 25 80 4.8 4.8 0.00 0.00 0.00 34 1015.6
20260509181827 23 105 3.2 4.8 0.00 0.00 0.00 36 1015.5
20260509181324 23 270 1.6 1.6 0.00 0.00 0.00 36 1015.4
20260509180821 23 208 4.8 8.0 0.00 0.00 0.00 36 1015.5
20260509180317 23 93 4.8 9.7 0.00 0.00 0.00 37 1015.6
20260509175813 24 92 4.8 9.7 0.00 0.00 0.00 33 1015.5
20260509175310 25 277 0.0 1.6 0.00 0.00 0.00 34 1015.6
20260509174806 25 299 3.2 3.2 0.00 0.00 0.00 37 1015.1
20260509174302 25 88 3.2 3.2 0.00 0.00 0.00 34 1015.4
20260509173758 25 284 3.2 3.2 0.00 0.00 0.00 38 1015.4
20260509173253 23 294 3.2 3.2 0.00 0.00 0.00 38 1015.6
20260509172749 25 294 0.0 0.0 0.00 0.00 0.00 40 1015.6
20260509172247 25 300 3.2 3.2 0.00 0.00 0.00 39 1015.9
20260509171742 25 187 0.0 1.6 0.00 0.00 0.00 41 1015.5
20260509171238 25 326 3.2 3.2 0.00 0.00 0.00 39 1015.5
20260509170735 23 114 3.2 4.8 0.00 0.00 0.00 35 1015.7
20260509170231 23 138 4.8 4.8 0.00 0.00 0.00 37 1015.7
20260509165730 23 149 0.0 0.0 0.00 0.00 0.00 43 1015.7
20260509165225 24 333 1.6 3.2 0.00 0.00 0.00 41 1015.6
20260509164721 24 277 1.6 1.6 0.00 0.00 0.00 38 1015.7
20260509164217 26 339 0.0 1.6 0.00 0.00 0.00 39 1015.6
20260509163715 25 290 1.6 3.2 0.00 0.00 0.00 44 1015.5
20260509163211 25 66 1.6 4.8 0.00 0.00 0.00 39 1015.6
20260509162709 25 228 0.0 1.6 0.00 0.00 0.00 42 1015.7
20260509162204 24 279 1.6 1.6 0.00 0.00 0.00 42 1015.6
20260509161700 25 278 0.0 0.0 0.00 0.00 0.00 44 1015.5
20260509161155 25 284 1.6 1.6 0.00 0.00 0.00 39 1015.6
20260509160651 25 293 1.6 1.6 0.00 0.00 0.00 40 1015.9
20260509160147 24 278 1.6 1.6 0.00 0.00 0.00 39 1015.6
20260509155643 25 280 1.6 1.6 0.00 0.00 0.00 39 1015.5
20260509155140 24 288 0.0 3.2 0.00 0.00 0.00 46 1015.5
20260509154635 23 283 0.0 1.6 0.00 0.00 0.00 48 1015.4
20260509154133 24 289 1.6 1.6 0.00 0.00 0.00 49 1015.5
20260509153630 23 278 0.0 0.0 0.00 0.00 0.00 48 1015.6
20260509153126 23 278 0.0 1.6 0.00 0.00 0.00 51 1015.5
20260509152622 23 240 0.0 1.6 0.00 0.00 0.00 55 1015.5
20260509152120 23 275 0.0 0.0 0.00 0.00 0.00 55 1015.4
20260509151616 22 272 0.0 0.0 0.00 0.00 0.00 61 1015.4
20260509151114 22 281 1.6 3.2 0.00 0.00 0.00 64 1015.4
20260509150611 22 277 0.0 1.6 0.00 0.00 0.00 64 1015.5
20260509150110 22 287 0.0 1.6 0.00 0.00 0.00 65 1015.4
20260509145605 21 280 0.0 0.0 0.00 0.00 0.00 68 1015.4
20260509145100 21 274 0.0 0.0 0.00 0.00 0.00 69 1015.3
20260509144558 21 283 1.6 1.6 0.00 0.00 0.00 71 1015.2
20260509144055 21 285 0.0 0.0 0.00 0.00 0.00 72 1015.4
20260509143551 21 284 1.6 1.6 0.00 0.00 0.00 72 1015.3
20260509143049 20 279 0.0 0.0 0.00 0.00 0.00 73 1015.3
20260509142544 20 277 1.6 1.6 0.00 0.00 0.00 74 1015.2
20260509142041 20 277 1.6 1.6 0.00 0.00 0.00 74 1015.4
20260509141537 20 270 0.0 0.0 0.00 0.00 0.00 74 1015.3
20260509141034 20 279 1.6 1.6 0.00 0.00 0.00 76 1015.1
20260509140531 19 279 0.0 0.0 0.00 0.00 0.00 77 1015.2
20260509140029 19 281 0.0 1.6 0.00 0.00 0.00 77 1015.0
20260509135525 18 286 1.6 3.2 0.00 0.00 0.00 77 1014.8
20260509135023 18 277 0.0 0.0 0.00 0.00 0.00 81 1014.8
20260509134520 17 280 1.6 3.2 0.00 0.00 0.00 81 1014.8
20260509134018 17 279 0.0 0.0 0.00 0.00 0.00 82 1014.9
20260509133514 17 278 1.6 1.6 0.00 0.00 0.00 82 1014.8
20260509133012 17 275 1.6 1.6 0.00 0.00 0.00 82 1014.8
20260509132510 17 281 3.2 3.2 0.00 0.00 0.00 84 1014.6
20260509132008 17 280 1.6 1.6 0.00 0.00 0.00 84 1014.6
20260509131504 16 277 1.6 3.2 0.00 0.00 0.00 85 1014.3
20260509131001 16 277 1.6 1.6 0.00 0.00 0.00 86 1014.6
20260509130456 16 282 3.2 3.2 0.00 0.00 0.00 86 1014.5
20260509125953 16 280 1.6 1.6 0.00 0.00 0.00 87 1014.5
20260509125450 16 275 1.6 1.6 0.00 0.00 0.00 87 1014.3
20260509124946 16 282 1.6 3.2 0.00 0.00 0.00 88 1014.1
20260509124443 16 304 3.2 3.2 0.00 0.00 0.00 87 1014.4
20260509123940 16 285 1.6 1.6 0.00 0.00 0.00 87 1014.3
20260509123438 16 295 1.6 3.2 0.00 0.00 0.00 87 1014.4
20260509122933 15 228 0.0 1.6 0.00 0.00 0.00 89 1014.4
20260509122431 15 288 1.6 1.6 0.00 0.00 0.00 89 1014.1
20260509121927 15 280 1.6 1.6 0.00 0.00 0.00 90 1014.1
20260509121424 15 293 1.6 3.2 0.00 0.00 0.00 90 1013.9
20260509120922 14 301 4.8 4.8 0.00 0.00 0.00 91 1013.8
20260509120420 14 306 3.2 3.2 0.00 0.00 0.00 92 1013.8
20260509115918 14 304 3.2 3.2 0.00 0.00 0.00 92 1013.5
20260509115415 13 290 0.0 1.6 0.00 0.00 0.00 93 1013.4
20260509114912 13 278 1.6 1.6 0.00 0.00 0.00 93 1013.6
20260509114411 13 289 1.6 1.6 0.00 0.00 0.00 93 1013.5
20260509113910 13 277 0.0 0.0 0.00 0.00 0.00 94 1013.4
20260509113407 13 305 1.6 3.2 0.00 0.00 0.00 95 1013.3
20260509112903 13 294 1.6 3.2 0.00 0.00 0.00 95 1013.4
20260509112400 13 279 0.0 0.0 0.00 0.00 0.00 96 1013.2
20260509111858 13 304 1.6 1.6 0.00 0.00 0.00 96 1013.3
20260509111354 13 282 1.6 1.6 0.00 0.00 0.00 96 1013.3
20260509110852 13 292 1.6 3.2 0.00 0.00 0.00 96 1013.2
20260509110348 13 286 0.0 1.6 0.00 0.00 0.00 96 1013.3
20260509105846 13 275 1.6 1.6 0.00 0.00 0.00 96 1013.3
20260509105344 13 285 0.0 0.0 0.00 0.00 0.00 96 1013.0
20260509104841 12 284 0.0 0.0 0.00 0.00 0.00 97 1013.1
20260509104337 12 284 0.0 0.0 0.00 0.00 0.00 97 1013.2
20260509103835 12 270 0.0 0.0 0.00 0.00 0.00 97 1013.1
20260509103332 12 272 0.0 0.0 0.00 0.00 0.00 96 1013.1
20260509102831 13 267 1.6 1.6 0.00 0.00 0.00 96 1013.4
20260509102328 13 265 0.0 1.6 0.00 0.00 0.00 95 1013.3
20260509101823 13 276 0.0 0.0 0.00 0.00 0.00 95 1013.1
20260509101320 13 277 0.0 0.0 0.00 0.00 0.00 94 1013.0
20260509100818 13 279 0.0 0.0 0.00 0.00 0.00 94 1012.9
20260509100315 13 282 1.6 1.6 0.00 0.00 0.00 94 1013.2
20260509095811 13 276 0.0 0.0 0.00 0.00 0.00 94 1013.1
20260509095309 13 284 0.0 1.6 0.00 0.00 0.00 93 1013.0
20260509094806 13 277 0.0 1.6 0.00 0.00 0.00 94 1013.1
20260509094302 13 276 0.0 1.6 0.00 0.00 0.00 95 1013.1
20260509093800 13 276 1.6 1.6 0.00 0.00 0.00 95 1013.0
20260509093257 13 276 1.6 1.6 0.00 0.00 0.00 94 1013.0
20260509092755 13 275 0.0 0.0 0.00 0.00 0.00 94 1013.2
20260509092253 13 277 0.0 1.6 0.00 0.00 0.00 94 1013.3
20260509091751 13 275 0.0 0.0 0.00 0.00 0.00 94 1013.3
20260509091247 13 274 1.6 1.6 0.00 0.00 0.00 95 1013.4
20260509090745 12 275 1.6 1.6 0.00 0.00 0.00 95 1013.5
20260509090242 12 275 1.6 1.6 0.00 0.00 0.00 95 1013.5
20260509085739 12 277 0.0 1.6 0.00 0.00 0.00 95 1013.6
20260509085237 12 275 0.0 0.0 0.00 0.00 0.00 95 1013.7
20260509084733 12 276 1.6 1.6 0.00 0.00 0.00 96 1013.5
20260509084229 12 277 1.6 1.6 0.00 0.00 0.00 95 1013.8
20260509083728 12 273 0.0 0.0 0.00 0.00 0.00 95 1013.6
20260509083224 12 277 0.0 0.0 0.00 0.00 0.00 95 1013.5
20260509082721 12 275 0.0 0.0 0.00 0.00 0.00 95 1013.9
20260509082218 12 273 0.0 0.0 0.00 0.00 0.00 95 1013.6
20260509081714 12 279 0.0 0.0 0.00 0.00 0.00 95 1013.9
20260509081212 13 274 0.0 0.0 0.00 0.00 0.00 94 1013.8
20260509080710 13 279 0.0 0.0 0.00 0.00 0.00 94 1013.7
20260509080207 13 277 0.0 1.6 0.00 0.00 0.00 94 1013.6
20260509075705 13 266 0.0 0.0 0.00 0.00 0.00 94 1013.9
20260509075203 13 210 0.0 0.0 0.00 0.00 0.00 94 1013.9
20260509074659 13 281 0.0 0.0 0.00 0.00 0.00 94 1013.8
20260509074156 13 274 1.6 1.6 0.00 0.00 0.00 94 1013.6
20260509073653 13 277 0.0 1.6 0.00 0.00 0.00 93 1013.6
20260509073149 13 280 0.0 0.0 0.00 0.00 0.00 93 1013.5
20260509072646 13 282 1.6 1.6 0.00 0.00 0.00 93 1013.6
20260509072143 13 276 0.0 0.0 0.00 0.00 0.00 93 1013.6
20260509071639 13 275 0.0 0.0 0.00 0.00 0.00 92 1013.8
20260509071137 13 274 0.0 0.0 0.00 0.00 0.00 92 1013.9
20260509070634 13 274 1.6 1.6 0.00 0.00 0.00 91 1013.6
20260509070130 13 271 0.0 0.0 0.00 0.00 0.00 91 1013.6
20260509065626 13 278 1.6 1.6 0.00 0.00 0.00 91 1013.5
20260509065122 13 278 0.0 0.0 0.00 0.00 0.00 92 1013.8
20260509064620 13 272 0.0 0.0 0.00 0.00 0.00 92 1013.5
20260509064118 13 267 1.6 1.6 0.00 0.00 0.00 92 1013.9
20260509063614 13 263 0.0 3.2 0.00 0.00 0.00 92 1013.6
20260509063110 13 275 0.0 1.6 0.00 0.00 0.00 91 1013.5
20260509062608 13 277 1.6 1.6 0.00 0.00 0.00 91 1013.6
20260509062105 13 278 0.0 0.0 0.00 0.00 0.00 90 1013.6
20260509061601 13 286 0.0 0.0 0.00 0.00 0.00 90 1013.8
20260509061059 14 310 3.2 4.8 0.00 0.00 0.00 88 1013.7
20260509060557 15 280 1.6 3.2 0.00 0.00 0.00 87 1014.0
20260509060052 15 284 0.0 1.6 0.00 0.00 0.00 86 1013.8
20260509055548 15 331 1.6 3.2 0.00 0.00 0.00 84 1013.6
20260509055044 15 283 3.2 3.2 0.00 0.00 0.00 83 1013.7
20260509054541 15 302 3.2 4.8 0.00 0.00 0.00 81 1013.6
20260509054038 15 280 1.6 3.2 0.00 0.00 0.00 80 1013.8
20260509053537 15 273 0.0 1.6 0.00 0.00 0.00 79 1013.6
20260509053033 15 293 3.2 3.2 0.00 0.00 0.00 79 1013.4
20260509052531 15 256 1.6 1.6 0.00 0.00 0.00 79 1013.7
20260509052029 15 274 0.0 1.6 0.00 0.00 0.00 78 1013.4
20260509051527 15 287 1.6 1.6 0.00 0.00 0.00 78 1013.5
20260509051024 15 278 3.2 4.8 0.00 0.00 0.00 78 1013.4
20260509050520 15 266 0.0 1.6 0.00 0.00 0.00 79 1013.6
20260509050017 15 272 1.6 3.2 0.00 0.03 0.03 78 1013.6